Location: La Tine
(46.4708°N, 7.0525°E)
Time: 08:47:16
(UTC+00:00)

Meteor 1-24 Rocket - Pass Details

Date: 17 January 2021
Orbit: 790 x 927 km, 81.3° (Epoch: 24 February)

Event Time Altitude Azimuth Distance (km) Brightness Sun altitude
Exits shadow 03:18:27 21° 50° (NE) 1,772 5.8 -39.3°
Maximum altitude 03:19:26 22° 65° (ENE) 1,730 5.8 -39.2°
Drops below altitude 10° 03:23:37 10° 115° (ESE) 2,438 6.6 -38.5°
Sets 03:26:36 0° 131° (SE) 3,393 7.3 -37.9°
